(35017) = 1981 EG7 = 2000 RA25

Discovered at Siding Spring on 1981-03-06 by S. J. Bus.

Orbit

Orbit type: Main Belt

Note: WebGL enabled browser required.

epoch2024-03-31.0
epoch JD2460400.5
perihelion date2020-10-21.01299
perihelion JD2459143.51300
argument of perihelion (°)272.21969
ascending node (°)299.91926
inclination (°)6.09732
eccentricity0.0571583
perihelion distance (AU)2.2050470
Tisserand w.r.t. Jupiter3.6
ΔV w.r.t. Earth (km/sec)9.4
semimajor axis (AU)2.3387244
mean anomaly (°)346.39075
mean daily motion (°/day)0.27557230
aphelion distance (AU)2.472
period (years)3.58
P-vector [x]-0.84186101
P-vector [y]-0.44327082
P-vector [z]-0.30786526
Q-vector [x]0.53178441
Q-vector [y]-0.77862426
Q-vector [z]-0.33309098
absolute magnitude15.93
phase slope0.15
uncertainty0
referenceE2024-H23
observations used1057
oppositions20
arc length (days)15770
first opposition used1981
last opposition used2024
residual rms (arc-secs)0.67
perturbers coarse indicatorM-v
perturbers precise indicator003Ek
first observation date used1981-02-12.0
last observation date used2024-04-17.0
computer nameMPCLINUX
JD of orbit computation2456966.771358
perihelion JD uncertainty (days)2.0012E-04
argument of perihelion uncertainty (°)6.5144E-05
ascending node uncertainty (°)3.5273E-05
inclination uncertainty (°)5.7462E-06
eccentricity uncertainty 3.5810E-08
perihelion distance uncertainty (AU)8.1029E-08
Minimum Orbit Intersection Distances (in AU)
for orbit epoch: 2460400.5, reference: E2024-G51
Mercury1.75672
Venus1.49346
Earth1.20874
Mars0.61254
Jupiter2.52267
Saturn6.63761
Uranus16.1941
Neptune27.3757

Observations

1044 total observations over interval: 1981 02 12.60906 – 2024 03 20.376837
These data are available for download (format description).

Date (UT) J2000 RA J2000 Dec Magn Location Ref
1981 02 12.60906 12 40 09.74 -12 28 40.0   413 – Siding Spring Observatory MPC 9628
1981 03 06.54930 12 30 35.85 -13 15 28.1 19.0 V 413 – Siding Spring Observatory MPC 7331
1981 03 06.59096 12 30 34.05 -13 15 29.7   413 – Siding Spring Observatory MPC 7331
1981 03 08.56669 12 29 02.74 -13 14 20.0   413 – Siding Spring Observatory MPC 7331
1981 03 08.60836 12 29 00.95 -13 14 18.6   413 – Siding Spring Observatory MPC 7331
1981 03 12.63230 12 25 39.21 -13 09 07.3   413 – Siding Spring Observatory MPC 7331
1981 03 12.67049 12 25 37.32 -13 09 03.0   413 – Siding Spring Observatory MPC 7331
1981 04 08.63658 12 00 05.69 -11 16 51.4   413 – Siding Spring Observatory MPC 7331
1981 04 09.55619 11 59 19.29 -11 11 40.5   413 – Siding Spring Observatory MPC 7331
1981 04 09.59091 11 59 17.58 -11 11 28.3   413 – Siding Spring Observatory MPC 7331
1981 05 01.49549 11 47 15.45 -09 17 11.9   413 – Siding Spring Observatory MPC 10245
1981 05 03.39307 11 46 53.43 -09 09 31.9   413 – Siding Spring Observatory MPC 10245
1996 07 15.41165 20 04 57.81 -21 05 40.2 19.1 V 566 – Haleakala-NEAT/GEODSS MPS 17297
1996 07 15.43017 20 04 56.54 -21 05 39.9 19.2 V 566 – Haleakala-NEAT/GEODSS MPS 17297
1996 07 15.45054 20 04 55.17 -21 05 40.0 19.7 V 566 – Haleakala-NEAT/GEODSS MPS 17297
1997 11 28.69997 03 56 27.76 +29 02 17.6   327 – Peking Observatory, Xinglong Station MPS 17297
1997 11 28.71385 03 56 26.69 +29 02 13.7 19.4   327 – Peking Observatory, Xinglong Station MPS 17297
1997 11 28.72772 03 56 25.76 +29 02 09.7   327 – Peking Observatory, Xinglong Station MPS 17297
2000 09 01.27336 23 38 20.69 +06 07 01.7 19.1   704 – Lincoln Laboratory ETS, New Mexico MPS 18441
2000 09 01.28663 23 38 19.93 +06 07 00.7 19.0   704 – Lincoln Laboratory ETS, New Mexico MPS 18441
2000 09 01.29981 23 38 19.21 +06 06 58.3 19.3   704 – Lincoln Laboratory ETS, New Mexico MPS 18441
2000 09 01.31300 23 38 18.45 +06 06 55.7 19.7   704 – Lincoln Laboratory ETS, New Mexico MPS 18441
2000 09 03.26625 23 36 32.47 +06 01 22.5 19.0   704 – Lincoln Laboratory ETS, New Mexico MPS 18441
2000 09 03.27970 23 36 31.63 +06 01 20.5 19.1   704 – Lincoln Laboratory ETS, New Mexico MPS 18441
2000 09 03.29293 23 36 30.91 +06 01 17.8 19.1   704 – Lincoln Laboratory ETS, New Mexico MPS 18441
2000 09 03.30644 23 36 30.15 +06 01 15.2 19.0   704 – Lincoln Laboratory ETS, New Mexico MPS 18441
2000 09 03.31963 23 36 29.46 +06 01 13.4 19.4   704 – Lincoln Laboratory ETS, New Mexico MPS 18441
2000 09 05.32656 23 34 37.53 +05 54 51.1 18.7 R 699 – Lowell Observatory-LONEOS MPS 18441
2000 09 05.34035 23 34 36.71 +05 54 47.2   699 – Lowell Observatory-LONEOS MPS 18441
2000 09 05.35417 23 34 35.86 +05 54 45.6   699 – Lowell Observatory-LONEOS MPS 18441
2000 09 05.36803 23 34 35.18 +05 54 42.3   699 – Lowell Observatory-LONEOS MPS 18441
2000 09 23.25483 23 17 24.13 +04 36 00.4 19.2   704 – Lincoln Laboratory ETS, New Mexico MPS 18836
2000 09 23.26956 23 17 23.27 +04 35 56.4 19.2   704 – Lincoln Laboratory ETS, New Mexico MPS 18836
2000 09 23.28460 23 17 22.47 +04 35 50.7 19.4   704 – Lincoln Laboratory ETS, New Mexico MPS 18836
2000 09 23.29934 23 17 21.60 +04 35 47.3 19.3   704 – Lincoln Laboratory ETS, New Mexico MPS 18836
2000 09 23.31405 23 17 20.77 +04 35 42.9 19.1   704 – Lincoln Laboratory ETS, New Mexico MPS 18836
2000 09 26.25611 23 14 41.95 +04 20 32.8 18.5   704 – Lincoln Laboratory ETS, New Mexico MPS 18836
2000 09 26.28729 23 14 40.17 +04 20 23.7 18.5   704 – Lincoln Laboratory ETS, New Mexico MPS 18836
2000 09 26.30320 23 14 39.30 +04 20 18.9 19.2   704 – Lincoln Laboratory ETS, New Mexico MPS 18836
2000 09 26.31784 23 14 38.53 +04 20 13.6 19.1   704 – Lincoln Laboratory ETS, New Mexico MPS 18836
2000 10 01.22349 23 10 32.08 +03 54 47.6 18.9 R 699 – Lowell Observatory-LONEOS MPS 20609
2000 10 01.24280 23 10 31.14 +03 54 41.2   699 – Lowell Observatory-LONEOS MPS 20609
2000 10 01.26217 23 10 30.21 +03 54 35.0   699 – Lowell Observatory-LONEOS MPS 20609
2000 10 01.28146 23 10 29.19 +03 54 28.7   699 – Lowell Observatory-LONEOS MPS 20609
2000 10 03.25363 23 08 57.88 +03 44 23.2 19.2   704 – Lincoln Laboratory ETS, New Mexico MPS 18836
2000 10 03.26914 23 08 57.12 +03 44 17.9 19.2   704 – Lincoln Laboratory ETS, New Mexico MPS 18836
2000 10 03.31106 23 08 55.18 +03 44 05.9 19.6   704 – Lincoln Laboratory ETS, New Mexico MPS 18836
2000 10 03.32852 23 08 54.24 +03 43 59.2 19.9   704 – Lincoln Laboratory ETS, New Mexico MPS 18836
2001 12 14.32644 08 31 52.74 +20 49 09.5 19.7 V 333 – Desert Eagle Observatory MPS 42721
2001 12 14.35965 08 31 51.98 +20 49 08.2 19.6 V 333 – Desert Eagle Observatory MPS 42721
2001 12 14.39271 08 31 51.22 +20 49 06.5 19.6 V 333 – Desert Eagle Observatory MPS 42721
2001 12 17.48142 08 30 34.13 +20 47 14.4 19.4   644 – Palomar Mountain/NEAT MPS 42721
2001 12 17.49195 08 30 33.81 +20 47 14.0 20.0   644 – Palomar Mountain/NEAT MPS 42721
2001 12 17.50242 08 30 33.49 +20 47 13.6 19.8   644 – Palomar Mountain/NEAT MPS 42721
2001 12 18.45633 08 30 05.85 +20 46 48.9 19.4   704 – Lincoln Laboratory ETS, New Mexico MPS 42721
2001 12 18.47281 08 30 05.25 +20 46 48.6 20.2   704 – Lincoln Laboratory ETS, New Mexico MPS 42721
2001 12 18.48978 08 30 04.72 +20 46 48.5 19.5   704 – Lincoln Laboratory ETS, New Mexico MPS 42721
2001 12 18.50501 08 30 04.22 +20 46 47.3 19.6   704 – Lincoln Laboratory ETS, New Mexico MPS 42721
2001 12 18.52044 08 30 03.74 +20 46 46.6 19.6   704 – Lincoln Laboratory ETS, New Mexico MPS 42721
2002 01 09.33284 08 12 04.16 +20 49 56.9 18.6   704 – Lincoln Laboratory ETS, New Mexico MPS 48338
2002 01 09.34800 08 12 03.10 +20 49 56.7 18.9   704 – Lincoln Laboratory ETS, New Mexico MPS 48338
2002 01 09.36316 08 12 02.07 +20 49 57.7 19.4   704 – Lincoln Laboratory ETS, New Mexico MPS 48338
2002 01 09.37834 08 12 01.18 +20 49 57.6 20.1   704 – Lincoln Laboratory ETS, New Mexico MPS 48338
2002 01 09.39362 08 12 00.01 +20 49 58.0 18.9   704 – Lincoln Laboratory ETS, New Mexico MPS 48338
2002 01 14.30890 08 06 30.44 +20 52 00.4 19.0   704 – Lincoln Laboratory ETS, New Mexico MPS 48338
2002 01 14.32399 08 06 29.39 +20 52 00.8 19.1   704 – Lincoln Laboratory ETS, New Mexico MPS 48338
2002 01 14.33924 08 06 28.30 +20 52 01.4 19.4   704 – Lincoln Laboratory ETS, New Mexico MPS 48338
2002 01 14.35643 08 06 27.06 +20 52 01.8 18.9   704 – Lincoln Laboratory ETS, New Mexico MPS 48338
2002 01 14.37161 08 06 26.00 +20 52 02.3 19.1   704 – Lincoln Laboratory ETS, New Mexico MPS 48338
2002 01 16.49002 08 03 59.72 +20 52 47.3 19.7   608 – Haleakala-AMOS MPS 48338
2002 01 16.50081 08 03 58.94 +20 52 47.6 19.5   608 – Haleakala-AMOS MPS 48338
2002 01 16.51113 08 03 58.23 +20 52 45.9 19.8   608 – Haleakala-AMOS MPS 48338
2002 01 18.25634 08 01 56.82 +20 53 17.2 18.9   704 – Lincoln Laboratory ETS, New Mexico MPS 48338
2002 01 18.27147 08 01 55.72 +20 53 17.3 18.5   704 – Lincoln Laboratory ETS, New Mexico MPS 48338
2002 01 18.29375 08 01 54.13 +20 53 17.4 18.3   704 – Lincoln Laboratory ETS, New Mexico MPS 48338
2002 01 21.23182 07 58 29.24 +20 53 54.6 18.8   704 – Lincoln Laboratory ETS, New Mexico MPS 48338
2002 01 21.24659 07 58 28.16 +20 53 54.5 18.7   704 – Lincoln Laboratory ETS, New Mexico MPS 48338
2002 01 21.26141 07 58 27.08 +20 53 54.3 18.9   704 – Lincoln Laboratory ETS, New Mexico MPS 48338
2002 01 21.27632 07 58 26.09 +20 53 55.4 19.4   704 – Lincoln Laboratory ETS, New Mexico MPS 48338
2002 01 21.29112 07 58 24.92 +20 53 54.1 19.1   704 – Lincoln Laboratory ETS, New Mexico MPS 48338
2002 02 05.17246 07 42 21.70 +20 50 43.7 19.3   644 – Palomar Mountain/NEAT MPS 48338
2002 02 05.19327 07 42 20.46 +20 50 43.3 19.1   644 – Palomar Mountain/NEAT MPS 48338
2002 02 05.21428 07 42 19.24 +20 50 42.1 19.2   644 – Palomar Mountain/NEAT MPS 48338
2002 02 06.32195 07 41 17.00 +20 49 59.4 19.5 V 291 – LPL/Spacewatch II MPS 48338
2002 02 06.33627 07 41 16.19 +20 49 58.7 19.7 V 291 – LPL/Spacewatch II MPS 48338
2002 02 06.34969 07 41 15.41 +20 49 57.9 19.2 V 291 – LPL/Spacewatch II MPS 48338
2002 02 07.23609 07 40 27.50 +20 49 20.6 19.2   704 – Lincoln Laboratory ETS, New Mexico MPS 48338
2002 02 07.25060 07 40 26.70 +20 49 21.3 19.4   704 – Lincoln Laboratory ETS, New Mexico MPS 48338
